Tracking 34085 objects as of 13-May-2026
HD Live streaming from Space Station
objects crossing your sky now

STARLINK-37107

Track STARLINK-37107 now!
10-day predictions
STARLINK-37107 is classified as:


NORAD ID: 68294
Int'l Code: 2026-057A
Perigee: 349.7 km
Apogee: 352.7 km
Inclination: 97.3 °
Period: 91.4 minutes
Semi major axis: 6722 km
RCS: Unknown
Launch date: March 20, 2026
Source: United States (US)
Launch site: AIR FORCE WESTERN TEST RANGE (AFWTR)
Your satellite tracking list
Your tracking list is empty




NASA's NSSDC Master Catalog

Two Line Element Set (TLE):
1 68294U 26057A   26132.85749348  .00134381  00000-0  88744-3 0  9995
2 68294  97.2853 258.4531 0002182  87.5983 272.5532 15.75196009  8384
Source of the keplerian elements: AFSPC